Location: El Azufral
(10.3513°N, 67.1528°W)
Time: 16:18:48
(UTC+00:00)

ASTRO E2 - Visible Passes

Search period start: 08 September 2024 00:00
Search period end: 18 September 2024 00:00
Orbit: 398 x 404 km, 31.4° (Epoch: 07 September)

Date Brightness Start Highest point End Pass type
(mag) Time Alt. Az. Time Alt. Az. Time Alt. Az.
09 Sep 4.9 23:56:18 10° SSW 23:56:30 11° SSW 23:56:30 11° SSW visible
10 Sep 3.6 09:47:06 10° NW 09:50:07 35° NNE 09:53:09 10° E visible
10 Sep 4.4 23:01:43 10° S 23:03:05 12° SE 23:04:26 10° ESE visible
11 Sep 4.3 08:53:21 19° N 08:54:13 21° NNE 08:56:48 10° E visible
11 Sep 2.0 23:41:33 10° SW 23:44:46 66° SSE 23:44:46 66° SSE visible
12 Sep 2.1 09:33:32 16° WNW 09:35:59 68° SSW 09:39:13 10° SE visible
13 Sep 5.2 00:23:50 10° W 00:24:51 16° WNW 00:24:51 16° WNW visible
13 Sep 4.0 08:41:06 31° E 08:41:06 31° E 08:42:59 10° ESE visible
13 Sep 3.4 23:27:02 10° W 23:30:04 37° NNW 23:32:10 17° NNE visible
14 Sep 3.6 09:21:01 21° SW 09:21:04 21° SSW 09:23:37 10° SSE visible
15 Sep 4.9 23:12:45 10° WNW 23:14:44 15° NNW 23:16:43 10° NNE visible
